Location: Unspecified
(42.3650°N, 71.1030°W)
Time: 15:33:22
(UTC+00:00)

Tiros 1 - Pass Details

Date: 27 June 2024
Orbit: 624 x 656 km, 48.4° (Epoch: 13 July)

Event Time Altitude Azimuth Distance (km) Brightness Sun altitude
Rises 08:56:38 0° 294° (WNW) 2,917 10.2 -2.8°
Reaches altitude 10° 08:59:01 10° 288° (WNW) 2,011 9.3 -2.5°
Maximum altitude 09:03:24 44° 217° (SW) 882 7.5 -1.8°
Drops below altitude 10° 09:07:49 10° 145° (SE) 2,021 9.7 -1.1°
Sets 09:10:14 0° 139° (SE) 2,933 10.6 -0.8°
